Theta_e
293 292 292 291 292 292 290 288 287 286 284 282 281 280 279 279 278 278 278 279 279 280 281 281 282 282 282 282 281 282 283 282
292 292 292 291 291 290 290 288 286 284 283 281 279 279 278 278 277 277 278 278 278 279 280 280 281 282 282 281 280 280 281 282
291 291 290 290 289 289 289 287 285 284 281 280 278 277 277 276 276 277 277 277 278 279 279 280 280 282 281 280 279 279 279 280
290 289 288 288 288 288 287 286 284 282 280 278 277 277 276 276 276 276 275 276 277 278 278 278 279 281 281 280 278 279 279 279
289 289 288 287 287 287 286 285 283 281 279 277 276 276 275 275 274 274 274 274 274 276 276 277 279 281 281 279 278 279 279 279
289 289 288 288 287 285 285 283 281 279 278 276 276 275 273 273 273 273 273 274 273 274 275 276 278 280 280 278 277 278 277 278
287 287 286 285 285 284 283 281 280 278 275 275 274 272 272 272 272 272 272 273 273 273 274 275 277 281 281 278 277 277 276 277
288 286 286 285 285 283 282 281 278 276 274 273 272 271 271 271 272 271 272 273 272 273 274 275 276 281 280 277 277 276 276 277
289 287 286 285 284 283 280 279 276 274 273 272 271 270 270 271 271 272 273 273 274 273 274 275 276 280 280 277 276 276 276 277
287 286 285 283 282 281 278 277 275 273 272 271 271 270 270 270 271 273 274 274 274 274 273 273 274 279 279 277 276 275 276 277
285 285 283 283 281 278 277 276 274 273 272 271 271 270 270 271 272 273 274 274 275 274 274 272 273 277 279 278 276 275 276 277
283 282 282 281 280 277 276 275 276 274 272 271 271 271 271 272 273 273 274 273 273 273 273 273 273 275 277 278 276 274 275 275
281 280 280 279 278 277 276 277 275 272 271 271 271 272 272 272 272 273 273 272 273 273 274 274 274 275 275 276 276 275 274 273
282 279 278 278 279 277 276 275 272 271 270 270 271 272 272 271 271 272 272 273 272 273 273 273 275 275 275 275 275 275 272 273
279 278 276 277 278 279 276 273 271 270 270 270 271 271 271 272 272 272 272 272 272 273 273 273 274 274 274 274 274 274 273 272
278 277 277 277 278 276 273 272 271 271 270 271 271 271 271 272 272 273 274 274 274 274 274 274 272 273 274 273 273 272 271 270
278 277 276 276 276 272 273 272 272 271 270 271 271 271 271 271 271 275 274 276 276 276 275 274 275 274 274 274 273 273 272 269
277 277 276 276 272 273 272 273 272 272 271 272 271 271 271 270 270 270 274 276 276 276 276 276 274 274 273 272 273 272 271 267
277 276 275 275 271 272 273 273 273 273 273 272 272 272 271 271 271 272 271 271 272 276 275 275 274 273 272 272 271 267 267 265
275 274 274 273 272 272 273 273 273 273 272 273 273 272 272 272 272 272 273 273 272 271 272 273 274 272 272 271 268 266 265 265
Wind_Speed
13 15 14 15 15 16 15 14 13 12 10 9 9 7 6 5 3 3 3 4 5 6 7 9 10 11 11 9 9 11 8 9
11 12 13 13 14 15 15 14 13 12 9 10 9 8 6 5 4 3 3 4 5 5 7 8 10 11 10 11 11 12 11 11
12 13 12 13 14 15 15 14 13 12 11 10 10 9 8 6 4 3 4 3 4 4 6 8 10 10 11 11 11 11 12 12
12 13 13 12 13 14 14 14 13 13 12 12 11 9 8 6 5 4 4 3 4 4 6 8 9 10 11 11 10 10 11 11
11 12 12 13 14 14 14 14 14 13 13 12 10 10 8 7 6 4 3 3 4 5 5 6 7 11 10 11 9 10 10 10
12 11 12 13 13 13 13 14 14 13 12 11 10 9 9 8 6 4 4 3 2 3 4 5 6 8 11 11 9 9 10 10
11 12 14 14 14 13 14 14 15 13 12 11 11 9 9 8 7 5 4 3 2 3 4 5 5 15 15 13 7 8 9 9
14 15 13 15 15 16 15 14 13 14 12 12 11 10 9 9 7 6 4 4 2 2 4 5 7 16 15 12 6 7 8 9
8 8 11 13 14 15 16 16 15 14 14 12 12 11 10 9 7 6 5 4 3 2 4 5 5 15 14 9 6 6 7 8
6 5 11 14 15 16 15 15 15 16 15 14 13 12 11 10 9 6 6 5 3 2 3 5 5 14 13 8 5 6 5 6
4 8 12 13 16 17 16 17 17 16 15 14 13 13 11 10 9 7 6 5 4 3 3 4 5 12 13 9 5 6 5 5
4 6 9 12 14 14 14 16 15 14 14 13 13 13 11 11 8 7 6 5 3 3 3 4 4 6 11 12 6 5 5 5
4 5 7 11 13 13 14 12 13 15 15 14 13 10 10 11 9 8 7 6 4 3 2 4 2 6 8 10 10 7 4 5
7 8 7 9 11 13 12 14 15 15 15 15 14 12 11 11 10 8 7 6 5 3 3 3 2 3 7 7 9 9 5 4
9 8 9 9 8 8 13 15 16 15 14 13 14 13 11 8 8 7 6 6 5 4 4 3 3 4 4 4 4 6 5 7
9 10 9 10 10 10 14 15 15 14 13 13 11 12 11 8 7 7 5 6 6 4 4 4 4 4 6 6 4 4 6 3
6 7 10 11 11 13 14 16 16 15 12 12 11 10 10 9 8 10 10 11 11 10 6 3 8 5 8 10 9 8 7 4
8 8 9 11 11 13 14 16 18 16 16 12 12 11 12 10 10 11 10 14 14 11 9 9 8 6 7 10 13 11 9 5
8 9 10 12 12 13 14 15 14 14 18 13 12 12 12 11 10 10 11 10 8 11 9 9 8 5 5 7 7 4 7 5
7 9 11 11 12 14 14 15 15 13 12 12 12 11 12 11 10 10 10 9 9 5 5 4 10 8 8 9 4 4 5 4
Wind_Direction
186 189 189 187 187 183 183 175 170 163 161 156 151 140 127 114 100 72 26 4 359 9 12 358 353 353 352 351 350 345 348 352
186 188 187 186 187 183 182 172 168 162 156 152 148 140 133 122 114 86 50 12 5 11 13 2 357 353 352 355 355 349 345 355
183 185 188 188 185 184 179 172 166 159 153 154 147 144 139 130 119 95 64 23 1 6 17 10 358 351 350 356 356 351 347 352
184 193 192 188 186 183 180 171 163 154 153 154 154 149 133 125 116 89 63 11 6 7 19 15 349 346 355 354 356 355 349 348
200 202 193 187 185 185 177 167 160 160 154 155 155 146 137 131 123 108 86 55 18 353 8 12 333 352 357 355 358 1 351 349
210 205 197 189 181 181 176 165 157 161 151 146 136 129 130 131 130 116 91 79 11 343 11 12 353 348 4 354 358 4 355 352
207 194 194 189 180 171 168 165 156 151 144 140 133 142 140 138 137 124 113 106 55 355 22 16 359 343 9 359 4 10 2 356
215 205 191 180 172 172 163 156 151 147 145 146 143 146 147 142 140 131 126 101 84 6 33 27 357 346 8 5 17 22 9 4
219 184 176 166 166 159 159 161 154 150 151 150 148 146 145 143 146 142 139 128 94 35 36 24 4 352 8 7 26 36 22 1
203 158 156 161 158 156 159 161 158 162 161 156 152 148 151 150 152 144 141 134 117 66 48 31 6 352 11 10 30 31 29 3
136 136 147 159 156 157 166 168 173 168 162 152 151 151 154 149 151 153 147 134 137 113 72 51 7 354 13 21 23 28 10 14
96 138 152 151 154 162 169 180 170 155 146 146 149 149 151 145 145 148 145 136 131 128 101 68 16 353 17 22 35 22 9 9
114 128 143 153 159 166 175 166 150 145 147 148 150 151 150 145 147 146 144 139 141 142 122 87 31 15 14 26 38 29 13 18
148 141 150 171 177 172 164 147 149 154 156 151 151 151 152 148 150 150 159 150 149 150 113 77 39 18 21 18 35 32 32 10
146 161 172 184 188 173 148 150 152 158 158 153 153 151 155 153 155 149 161 152 148 153 131 107 65 24 18 13 21 29 29 5
170 170 174 177 182 146 152 155 156 158 160 158 158 157 150 152 157 153 155 154 152 143 140 131 93 44 48 41 35 28 37 329
192 173 165 171 171 155 163 164 160 162 166 167 159 156 150 144 143 150 146 144 134 135 131 108 106 89 67 61 56 49 75 50
179 174 170 179 161 167 172 173 170 169 165 165 162 161 153 155 152 144 149 145 139 135 132 131 117 100 89 76 65 63 69 68
169 171 177 179 174 171 174 177 176 172 170 165 167 162 155 159 157 152 152 155 157 154 142 135 131 123 97 84 80 53 51 58
168 177 180 182 179 169 173 178 178 175 168 169 162 163 155 154 156 156 153 152 141 137 111 141 128 109 85 80 78 87 73 63